Location: Newark
(48.6767°N, 1.3256°E)
Time: 08:43:07
(UTC+00:00)

ISS - Pass Details

Date: 27 November 2019
Orbit: 411 x 421 km, 51.6° (Epoch: 08 December)

Event Time Altitude Azimuth Distance (km) Brightness Sun altitude
Rises 16:34:35 0° 222° (SW) 2,343 1.6 -5.3°
Reaches altitude 10° 16:36:45 10° 213° (SSW) 1,486 0.1 -5.6°
Maximum altitude 16:39:49 34° 146° (SE) 703 -2.7 -6.0°
Drops below altitude 10° 16:42:55 10° 79° (E) 1,500 -1.6 -6.5°
Enters shadow 16:43:18 - 77° (ENE) 1,644 -1.4 -6.6°
